User: anonymous   Login
Location: Alphen
(52.1351°N, 4.6549°E)
Time: 00:29:29
(UTC+00:00)
Language:

NOSS 5 (C) - Orbit

View from above orbital plane
View from above orbital plane
View from above satellite
View from above satellite

Ground track
Ground track

The orbit data is extracted from the following two-line orbital elements,

1 14143U 83056C   21104.34517549  .00001967  00000-0  16078-3 0  9999
2 14143  63.2982 332.9500 0907435  97.8304 272.6589 13.55391142 88432
Epoch (UTC): 14 April 2021 08:17:03
Eccentricity: 0.0907435
inclination: 63.2982°
perigee height: 378 km
apogee height: 1727 km
right ascension of ascending node: 332.9500°
argument of perigee: 97.8304°
revolutions per day: 13.55391142
mean anomaly at epoch: 272.6589°
orbit number at epoch: 8843

The dashed part of the orbit path shows where the satellite is in the earth's shadow,  

DLR